Location: Stow cum Quy
(52.2000°N, 0.2333°E)
Time: 08:53:22
(UTC+00:00)

Daily predictions for brighter satellites

Satellite Brightness Start Highest point End
(mag) Time Altitude Azimuth Time Altitude Azimuth Time Altitude Azimuth
Cosmos 1570 Rocket 4.1 21:00:45 10° SSW 21:06:05 88° ESE 21:11:28 10° NNE
Meteor 2-10 Rocket 4.0 21:01:28 10° NNW 21:07:18 75° W 21:13:01 10° S
USA 245 2.9 21:04:07 10° SSE 21:07:49 77° ENE 21:10:51 10° NNW
Cosmos 1844 Rocket 2.7 21:02:39 10° SSW 21:08:08 64° ESE 21:13:39 10° NE
SL-14 R/B 3.3 21:07:49 10° S 21:11:28 57° E 21:15:08 10° NNE
Cosmos 1238 Rocket 3.8 21:08:10 10° SSW 21:12:59 62° WNW 21:17:40 10° N
CZ-4C R/B 3.7 21:06:44 10° NW 21:13:21 48° WSW 21:21:29 10° SSE
Cosmos 1833 Rocket 3.6 21:11:25 10° NNW 21:16:46 40° NE 21:22:04 10° ESE
Cosmos 1151 Rocket 3.6 21:15:13 10° SSE 21:19:16 40° E 21:23:20 10° NNE
Cosmos 2082 Rocket 4.5 21:17:31 10° NNW 21:21:20 18° NNE 21:25:06 10° ENE
Cosmos 1066 Rocket 4.5 21:18:59 10° SSW 21:24:42 79° WNW 21:30:34 10° NNE
SL-08 R/B 4.2 21:20:36 10° N 21:25:05 51° WNW 21:29:30 10° SW
CZ-2C R/B 2.6 21:23:48 11° SE 21:26:18 40° ENE 21:28:54 10° N
Cosmos 1953 3.6 21:23:33 10° NNE 21:26:31 24° ENE 21:29:27 10° SE
Meteor 2-4 Rocket 4.5 21:21:06 10° SSW 21:26:46 59° WNW 21:32:37 10° N
SL-24 R/B - RUBIN 2 3.5 21:24:01 10° SSW 21:28:29 70° SE 21:32:50 10° NE
Cosmos 1844 3.8 21:23:29 10° SSW 21:29:16 81° ESE 21:35:06 10° NNE
CZ-4B R/B 3.6 21:25:11 10° SSE 21:30:16 88° WSW 21:35:30 10° NNW
Okean O Rocket 3.0 21:26:55 10° SSW 21:30:52 33° W 21:34:52 10° NNW
NOSS 2-2 (E) 3.9 21:30:28 10° WSW 21:33:34 46° NW 21:36:28 10° NE
In-Cosmos 22 4.3 21:30:31 10° S 21:36:17 84° E 21:42:04 10° NNE
NOSS 3-2 (C) 3.9 21:33:22 10° S 21:37:49 32° ESE 21:42:59 10° ENE
Cosmos 1461 3.4 21:38:54 10° NW 21:42:11 37° WSW 21:45:06 12° S
USA 186 3.8 21:42:56 10° SW 21:44:14 13° W 21:45:30 10° WNW
Cosmos 1745 Rocket 4.4 21:39:13 10° N 21:45:21 54° ENE 21:51:04 12° SSE
CZ-4B R/B 3.6 21:43:01 10° S 21:46:45 48° W 21:50:37 10° NNW
Sich 1 4.1 21:48:39 10° NNW 21:52:38 39° W 21:56:37 10° SSW
Cosmos 1500 Rocket 3.7 21:48:21 10° NNW 21:52:41 75° W 21:56:48 11° S
Helios 1A 4.1 21:51:42 10° NE 21:54:59 25° E 21:57:27 14° SE
Cosmos 2344 4.3 21:49:42 10° S 21:56:15 29° ESE 22:02:15 10° ENE
GP-B 3.0 21:52:52 10° N 21:57:16 81° E 22:01:23 12° S
Cosmos 1607 4.3 21:53:39 10° NW 21:59:57 61° SW 22:05:32 14° SSE
Iridium 4 Rocket 3.6 21:55:05 11° S 22:00:15 68° E 22:05:15 10° N
Helios 1B rocket 3.7 21:57:42 11° ESE 22:00:24 24° ENE 22:03:15 10° N
ARIANE 5 R/B 4.3 21:59:29 10° ESE 22:03:06 25° ENE 22:06:43 10° N
Cosmos 2285 Rocket 4.4 22:01:03 10° NNW 22:07:17 60° WSW 22:13:01 12° S
Cosmos 1420 Rocket 4.4 22:03:34 10° NNW 22:08:44 55° ENE 22:13:10 13° SE
NOSS 2-3 (D) 3.7 22:07:18 10° SSW 22:10:45 38° SE 22:14:20 10° ENE
ALOS 2 4.1 22:11:55 10° ESE 22:15:34 27° ENE 22:19:16 10° N
Cosmos 1538 Rocket 4.2 22:11:36 11° S 22:16:21 54° ESE 22:21:27 10° NNE
Cosmos 2315 Rocket 4.4 22:13:37 15° SSE 22:18:39 48° E 22:24:35 10° NNE
CENTAUR R/B 3.9 22:13:32 10° W 22:19:27 47° NNW 22:26:55 10° NE
Cosmos 1943 Rocket 3.6 22:16:33 14° SE 22:19:37 22° ESE 22:23:51 10° NE
Iridium 45 4.0 22:18:34 19° S 22:20:39 79° E 22:23:45 10° N
Cosmos 1328 Rocket 3.8 22:24:40 17° SSE 22:27:48 55° E 22:32:04 10° NNE
Ariane Rocket 4.5 22:24:58 10° SSW 22:29:23 29° W 22:33:50 10° NNW
Lacrosse 5 rocket 2.3 22:30:44 20° SE 22:31:06 20° SE 22:33:47 10° E
Cosmos 1666 Rocket 3.5 22:30:02 10° NNW 22:34:25 87° W 22:37:29 19° S
CZ-2C R/B 4.3 22:32:41 10° ESE 22:36:43 24° ENE 22:40:48 10° N
NOSS 2-3 (E) 3.0 22:34:38 10° SW 22:38:15 68° SE 22:42:08 10° NE
Cosmos 1703 3.7 22:37:13 11° SSW 22:40:03 43° WNW 22:43:07 10° N
USA 215 3.6 22:37:29 16° SSE 22:42:33 49° SW 22:48:52 10° WNW
NOSS 3-2 (A) 4.1 22:41:39 10° WSW 22:46:51 55° NNW 22:53:14 10° NE
GEOS 3 Rocket 3.7 22:45:16 16° SE 22:49:37 79° SW 22:55:04 10° NW
Timation 1 Rocket 4.4 22:44:18 10° NW 22:50:19 77° WSW 22:54:45 19° SSE
S3M 4.0 22:48:41 14° SSW 22:54:05 83° W 23:00:17 10° N
Cosmos 1515 Rocket 4.0 22:55:38 21° SSE 22:58:11 47° E 23:02:21 10° NNE
ARGOS Delta rocket 4.1 22:53:07 10° NNE 22:58:32 70° E 23:02:18 19° S
CSL-04 DEB 4.1 22:57:32 24° SSE 22:59:41 77° ENE 23:03:22 10° NNW
Cosmos 1833 Rocket 3.2 22:55:24 10° NW 23:00:47 47° WSW 23:04:36 19° S
USA 59 Rocket 1.1 23:01:29 18° ESE 23:01:29 18° ESE 23:03:36 10° E
Cosmos 1953 3.4 22:58:16 10° NNW 23:01:27 30° W 23:03:47 15° SSW
Spot 4 3.9 22:59:30 20° SSE 23:02:49 80° ENE 23:07:39 10° NNW
Cosmos 1709 Rocket 4.4 22:58:14 10° NNW 23:04:28 61° W 23:09:28 17° S
Meteor 1-16 Rocket 4.3 22:59:12 10° NNW 23:04:41 76° W 23:08:42 20° S
Cosmos 2082 Rocket 2.8 23:01:10 10° NNW 23:06:43 54° NE 23:11:52 12° SE
Okean 3 4.1 23:09:18 22° SSE 23:11:18 39° E 23:15:03 10° NNE
Cosmos 1633 Rocket 3.8 23:07:59 10° NNW 23:12:10 45° W 23:15:02 19° SSW
Meteor 1-23 Rocket 4.2 23:07:56 17° SSW 23:12:18 87° WNW 23:17:55 10° NNE
Cosmos 2278 Rocket 2.8 23:09:54 20° SSE 23:13:17 41° ESE 23:18:33 10° NE
Cosmos 1400 Rocket 2.5 23:19:54 10° NNW 23:23:38 83° ENE 23:25:30 27° SSE
Cosmos 1624 Rocket 4.0 23:18:25 10° NNW 23:23:44 78° WSW 23:27:15 22° SSE
COSMOS 2406 4.3 23:19:30 10° NNW 23:24:53 40° NE 23:30:14 10° ESE
Cosmos 1680 Rocket 3.5 23:22:43 20° S 23:26:14 68° ESE 23:31:25 10° NNE
CZ-2C R/B 3.8 23:20:59 10° NNE 23:26:21 45° E 23:29:38 21° SSE
Cosmos 494 Rocket 4.1 23:24:38 22° S 23:28:00 60° ESE 23:33:10 10° NNE
NOSS 3-2 (C) 3.7 23:22:56 10° WSW 23:28:09 64° NW 23:34:33 10° NE
Helios 1A 4.0 23:26:06 10° N 23:29:45 38° WNW 23:33:09 12° SW
Meteor 1-12 Rocket 4.4 23:24:13 10° NNW 23:29:50 68° W 23:33:43 21° S
Cosmos 2056 Rocket 3.5 23:25:24 10° NNW 23:30:29 66° WSW 23:33:39 23° S
Helios 1B rocket 3.2 23:31:35 21° SW 23:33:13 32° W 23:36:22 10° NNW
NOSS 2-3 (C) 3.4 23:29:57 10° WSW 23:33:19 63° NW 23:37:06 10° NE
Cosmos 1812 1.7 23:34:10 10° N 23:35:32 44° NNE 23:35:32 44° NNE
ARIANE 5 R/B 3.1 23:36:34 23° SSW 23:39:09 50° W 23:43:29 10° NNW
ACS3 Solar Sail 2.8 23:34:21 10° NNE 23:39:23 31° E 23:43:11 16° SE
Lacrosse 4 Rocket 4.3 23:38:14 10° NNW 23:40:51 16° NNE 23:43:26 10° ENE
USA 238 DEB 3.6 23:36:16 17° SSW 23:40:59 60° SE 23:47:39 10° NE
USA 238 3.6 23:36:31 17° SSW 23:41:12 59° SE 23:47:52 10° NE
Okean 2 3.9 23:42:05 19° SW 23:44:32 48° WNW 23:48:17 10° N
BREEZE-M DEB (TANK) 3.5 23:34:30 10° W 23:48:50 74° S 23:53:04 10° ESE
Cosmos 1933 Rocket 3.8 23:47:15 10° NNW 23:51:31 58° W 23:53:53 25° SSW
ALOS 2 3.3 23:49:18 22° SSW 23:51:44 44° W 23:55:58 10° NNW
Cosmos 1441 Rocket 2.6 23:54:17 33° S 23:55:37 83° ESE 23:58:51 10° NNE
